DW0326 Weather Reports


Display with metric or nautical units.
time (UTC)temp
F
wind
direction
speed
MPH
gust
MPH
rain 1hr
in
rain 24hr
in
rain mn
in
humidity
%
barometer
mb
20260831134318 82 0 0.0 0.0 0.00 0.00 0.00 92 1012.1
20260831133419 81 0 0.0 0.0 0.00 0.00 0.00 93 1011.9
20260831132519 80 0 0.0 0.0 0.00 0.00 0.00 95 1011.9
20260831130718 79 0 0.0 0.0 0.00 0.00 0.00 94 1011.7
20260831125819 79 0 0.0 0.0 0.00 0.00 0.00 94 1011.5
20260831124018 79 0 0.0 0.0 0.00 0.00 0.00 93 1011.6
20260831123118 79 0 0.0 0.0 0.00 0.00 0.00 93 1011.2
20260831122219 79 0 0.0 0.0 0.00 0.00 0.00 92 1011.2
20260831115519 80 0 0.0 0.0 0.00 0.00 0.00 92 1010.7
20260831114618 80 0 0.0 0.0 0.00 0.00 0.00 91 1010.7
20260831113718 80 0 0.0 0.0 0.00 0.00 0.00 91 1010.7
20260831111918 80 0 0.0 0.0 0.00 0.00 0.00 91 1010.7
20260831111019 80 0 0.0 0.0 0.00 0.00 0.00 91 1010.7
20260831110118 80 0 0.0 0.0 0.00 0.00 0.00 91 1010.7
20260831105219 80 0 0.0 0.0 0.00 0.00 0.00 91 1010.7
20260831104318 80 0 0.0 0.0 0.00 0.00 0.00 91 1010.7
20260831103418 80 0 0.0 0.0 0.00 0.00 0.00 91 1010.7
20260831102518 80 0 0.0 0.0 0.00 0.00 0.00 91 1010.7
20260831100718 80 0 0.0 0.0 0.00 0.00 0.00 91 1010.9
20260831095818 80 0 0.0 0.0 0.00 0.00 0.00 90 1010.8
20260831094018 80 0 0.0 0.0 0.00 0.00 0.00 90 1010.7
20260831091319 80 0 0.0 0.0 0.00 0.00 0.00 90 1010.6
20260831090418 81 0 0.0 0.0 0.00 0.00 0.00 90 1010.7
20260831085518 81 0 0.0 0.0 0.00 0.00 0.00 89 1010.7
20260831084618 81 0 0.0 0.0 0.00 0.00 0.00 89 1010.8
20260831083718 81 0 0.0 0.0 0.00 0.00 0.00 89 1010.8
20260831082818 81 0 0.0 0.0 0.00 0.00 0.00 89 1010.9
20260831081918 81 0 0.0 0.0 0.00 0.00 0.00 89 1011.0
20260831081018 81 0 0.0 0.0 0.00 0.00 0.00 89 1011.0
20260831080118 81 0 0.0 0.0 0.00 0.00 0.00 89 1010.9
20260831075218 81 0 0.0 0.0 0.00 0.00 0.00 88 1010.9
20260831074318 82 0 0.0 0.0 0.00 0.00 0.00 88 1011.0
20260831073418 82 0 0.0 0.0 0.00 0.00 0.00 88 1010.9
20260831072518 82 0 0.0 0.0 0.00 0.00 0.00 88 1010.9
20260831070718 82 0 0.0 0.0 0.00 0.00 0.00 87 1011.1
20260831065818 82 0 0.0 0.0 0.00 0.00 0.00 87 1011.1
20260831064918 82 0 0.0 0.0 0.00 0.00 0.00 87 1011.2
20260831063118 82 0 0.0 0.0 0.00 0.00 0.00 87 1011.2
20260831062218 83 0 0.0 0.0 0.00 0.00 0.00 87 1011.2
20260831061318 83 185 1.0 11.0 0.00 0.00 0.00 87 1011.2
20260831060419 83 206 1.0 7.0 0.00 0.00 0.00 86 1011.2
20260831054618 83 0 0.0 0.0 0.00 0.00 0.00 86 1011.2
20260831052818 83 218 0.0 3.0 0.00 0.00 0.00 86 1011.2
20260831051018 84 229 0.0 7.0 0.00 0.00 0.00 85 1011.1
20260831050118 84 0 0.0 0.0 0.00 0.00 0.00 85 1011.1
20260831045218 84 183 0.0 7.0 0.00 0.00 0.00 85 1011.1
20260831043418 84 0 0.0 0.0 0.00 0.00 0.00 84 1010.8
20260831042518 84 184 2.0 9.0 0.00 0.00 0.00 84 1010.8
20260831041618 84 181 2.0 6.0 0.00 0.00 0.00 84 1010.8
20260831040718 84 182 1.0 7.0 0.00 0.00 0.00 83 1010.8
20260831035818 84 199 1.0 7.0 0.00 0.00 0.00 83 1010.8
20260831034018 85 196 1.0 7.0 0.00 0.00 0.00 82 1010.6
20260831033118 85 192 1.0 8.0 0.00 0.00 0.00 82 1010.6
20260831032218 85 176 1.0 7.0 0.00 0.00 0.00 81 1010.6
20260831031317 85 164 0.0 5.0 0.00 0.00 0.00 81 1010.2
20260831030418 85 177 2.0 8.0 0.00 0.00 0.00 80 1010.1
20260831025518 86 179 1.0 9.0 0.00 0.00 0.00 80 1010.1
20260831023718 86 174 1.0 10.0 0.00 0.00 0.00 79 1010.0
20260831021018 87 176 1.0 7.0 0.00 0.00 0.00 77 1009.6
20260831020117 87 179 2.0 13.0 0.00 0.00 0.00 76 1009.5
20260831015218 87 181 2.0 13.0 0.00 0.00 0.00 75 1009.5
20260831014317 88 179 2.0 12.0 0.00 0.00 0.00 73 1009.6
20260831012518 88 185 1.0 10.0 0.00 0.00 0.00 71 1009.5
20260831011618 89 173 1.0 7.0 0.00 0.00 0.00 70 1009.2
20260831010717 89 172 1.0 9.0 0.00 0.00 0.00 70 1009.2
20260831005818 89 177 1.0 7.0 0.00 0.00 0.00 69 1009.2
20260831004917 90 190 2.0 10.0 0.00 0.00 0.00 69 1009.2
20260831004018 90 176 1.0 11.0 0.00 0.00 0.00 67 1009.2
20260831003118 91 183 3.0 12.0 0.00 0.00 0.00 66 1009.1
20260831002218 91 177 1.0 9.0 0.00 0.00 0.00 65 1009.1
20260831001318 92 167 1.0 8.0 0.00 0.00 0.00 63 1009.1
20260831000418 92 172 3.0 13.0 0.00 0.00 0.00 62 1009.0
20260830233718 94 178 2.0 11.0 0.00 0.00 0.00 59 1008.9
20260830232817 94 177 1.0 10.0 0.00 0.00 0.00 59 1008.8
20260830231918 94 175 2.0 15.0 0.00 0.00 0.00 58 1008.8
20260830231018 94 162 1.0 9.0 0.00 0.00 0.00 57 1008.8
20260830230117 94 147 1.0 10.0 0.00 0.00 0.00 57 1008.8
20260830225218 94 172 1.0 12.0 0.00 0.00 0.00 56 1008.8
20260830224318 95 162 1.0 9.0 0.00 0.00 0.00 56 1008.7
20260830223417 96 159 1.0 10.0 0.00 0.00 0.00 56 1008.7
20260830222517 97 159 0.0 7.0 0.00 0.00 0.00 54 1008.7
20260830221618 97 170 1.0 13.0 0.00 0.00 0.00 52 1008.6
20260830220718 98 184 0.0 6.0 0.00 0.00 0.00 50 1008.6
20260830215818 99 204 2.0 10.0 0.00 0.00 0.00 51 1008.6
20260830214017 99 203 1.0 10.0 0.00 0.00 0.00 51 1008.7
20260830213118 99 175 1.0 10.0 0.00 0.00 0.00 51 1009.1
20260830212218 98 173 1.0 10.0 0.00 0.00 0.00 49 1009.1
20260830211317 98 174 1.0 11.0 0.00 0.00 0.00 51 1009.3
20260830210418 99 167 2.0 14.0 0.00 0.00 0.00 50 1009.4
20260830205518 99 0 0.0 0.0 0.00 0.00 0.00 52 1009.4
20260830203717 98 143 0.0 6.0 0.00 0.00 0.00 52 1009.7
20260830202818 98 139 0.0 2.0 0.00 0.00 0.00 51 1010.0
20260830201918 98 229 0.0 5.0 0.00 0.00 0.00 52 1010.1
20260830201018 98 91 0.0 5.0 0.00 0.00 0.00 52 1010.1
20260830200118 98 150 0.0 5.0 0.00 0.00 0.00 50 1010.3
20260830195217 98 154 1.0 7.0 0.00 0.00 0.00 53 1010.3
20260830194317 98 175 1.0 7.0 0.00 0.00 0.00 50 1010.6
20260830193417 99 210 0.0 7.0 0.00 0.00 0.00 52 1010.9
20260830191618 97 195 2.0 10.0 0.00 0.00 0.00 53 1011.1
20260830190717 97 231 0.0 7.0 0.00 0.00 0.00 56 1011.1
20260830185817 97 0 0.0 0.0 0.00 0.00 0.00 58 1011.3
20260830183117 97 242 1.0 6.0 0.00 0.00 0.00 56 1011.7
20260830182217 96 229 1.0 9.0 0.00 0.00 0.00 59 1011.7
20260830181318 95 249 0.0 6.0 0.00 0.00 0.00 60 1012.1
20260830180418 95 205 0.0 4.0 0.00 0.00 0.00 61 1012.2
20260830175517 94 0 0.0 0.0 0.00 0.00 0.00 62 1012.2
20260830174617 94 194 0.0 6.0 0.00 0.00 0.00 63 1012.7
20260830173718 94 0 0.0 0.0 0.00 0.00 0.00 64 1012.7
20260830172818 93 247 0.0 5.0 0.00 0.00 0.00 66 1012.7
20260830171017 92 0 0.0 0.0 0.00 0.00 0.00 67 1012.7
20260830170117 92 0 0.0 0.0 0.00 0.00 0.00 67 1012.8
20260830165217 92 0 0.0 0.0 0.00 0.00 0.00 68 1012.8
20260830164317 92 0 0.0 0.0 0.00 0.00 0.00 68 1012.9
20260830162518 91 210 0.0 6.0 0.00 0.00 0.00 70 1012.8
20260830161617 90 207 1.0 6.0 0.00 0.00 0.00 72 1012.9
20260830160718 89 211 0.0 4.0 0.00 0.00 0.00 74 1012.9
20260830155818 88 292 0.0 3.0 0.00 0.00 0.00 76 1013.0
20260830154917 88 0 0.0 0.0 0.00 0.00 0.00 75 1013.0
20260830153117 88 0 0.0 0.0 0.00 0.00 0.00 76 1013.0
20260830152218 88 206 1.0 6.0 0.00 0.00 0.00 78 1013.0
20260830151318 87 0 0.0 0.0 0.00 0.00 0.00 79 1013.0
20260830144617 86 205 0.0 5.0 0.00 0.00 0.00 83 1013.1
20260830143717 85 0 0.0 0.0 0.00 0.00 0.00 84 1013.1
20260830142817 85 0 0.0 0.0 0.00 0.00 0.00 85 1013.2
20260830141918 84 211 1.0 6.0 0.00 0.00 0.00 86 1013.1
20260830141018 84 220 1.0 6.0 0.00 0.00 0.00 87 1013.1
20260830140118 83 0 0.0 0.0 0.00 0.00 0.00 89 1012.9
20260830135217 82 229 0.0 5.0 0.00 0.00 0.00 90 1012.9